Location: Newark
(7.0858°N, 171.3717°E)
Time: 13:48:51
(UTC+00:00)

Courier 1B Rocket - Pass Details

Date: 01 December 2020
Orbit: 920 x 1202 km, 28.2° (Epoch: 20 January)

Event Time Altitude Azimuth Distance (km) Brightness Sun altitude
Rises 15:59:12 0° 270° (W) 3,968 - -36.1°
Reaches altitude 10° 16:02:21 10° 280° (W) 3,045 - -35.4°
Maximum altitude 16:08:50 30° 339° (NNW) 1,976 - -33.9°
Exits shadow 16:12:14 22° 18° (NNE) 2,342 6.9 -33.1°
Drops below altitude 10° 16:15:29 10° 38° (NE) 3,125 7.8 -32.3°
Sets 16:18:47 0° 48° (NE) 4,088 8.6 -31.6°
